STARLINK-3798 (52371 NORAD) Tracking and Keplerian Element Data

This shows tracking and keplerian element data for the satellite.

Feedback or suggestion? Click here.




ElementValue
Catalog52371
NameSTARLINK-3798
Epoch Orbit130
Epoch Day167.08334491
Epoch Year2022
RAAN202.6658
Inclination53.2138
Eccentricity0.000297
Argument of Perigee15.3108
Mean Anonmoly290.7155
Mean Motion15.73231957
Decay Rate-0.00018284
L11 52371U 22045AS 22167.08334491 -.00018284 00000+0 -12591-3 0 9996
L22 52371 53.2138 202.6658 0002970 15.3108 290.7155 15.73231957 1303

Live tracking and technical data element details for STARLINK-3798 (NORAD 52371). STARLINK-3798 can be tracked NOW for your location showing map with azimuth and elevation plus other details from your city location.

Track the satellite on the map from your city or location and see movement details for azimuth, elevation, latitude, longitude, range, height, and movement on the map or in text.







IsCatalogInMostPopularTable: catalog: 52371, numindb: 1
Update: records affected: 1



GetName: 52371 STARLINK-3798

Hit Count: updated at: Sat, 25 Jun 2022 05:18:07 GMT